Regional Weather Roundup
Issued by NWS

Home | Current Version | Previous Version | Graphics & Text | Print | Product List | Glossary On
Versions: 1 2 3 4 5 6 7 8 9 10 11 12 13 14 15 16 17 18 19 20 21 22 23 24 25 26 27 28 29 30 31 32 33 34 35 36 37 38 39 40 41 42 43 44 45 46 47 48 49 50
000
ASUS43 KDTX 252310
RWRMI
MICHIGAN HOURLY REGIONAL WEATHER ROUNDUP
NATIONAL WEATHER SERVICE DETROIT/PONTIAC MI
700 PM EDT SAT APR 25 2015

NOTE: "FAIR" INDICATES FEW OR NO CLOUDS BELOW 12,000 FEET WITH NO
SIGNIFICANT WEATHER AND/OR OBSTRUCTION TO VISIBILITY.

MIZ047>049-052>055-059>063-066>070-074>076-081>083-260000-
SOUTHEAST LOWER MICHIGAN

CITY           SKY/WX    TMP DP  RH WIND       PRES   REMARKS
ADRIAN         CLOUDY    47  31  53 E9        29.79F
ALMA           MOSUNNY   48  26  41 NE16G22   29.85R
ANN ARBOR      CLOUDY    51  24  34 E8        29.78F
BAD AXE        MOSUNNY   43  22  43 NE9       29.88S
CARO           MOSUNNY   47  25  41 CALM      29.85S
DETROIT CITY   MOSUNNY   47  28  47 E9        29.81S
DETROIT        PTSUNNY   50  29  44 E6        29.81S
FLINT          MOSUNNY   51  21  30 NE14G22   29.82F
GROSSE ILE     PTSUNNY   46  25  42 E6        29.79S
HILLSDALE      CLOUDY    47  28  46 E9        29.77F
HOWELL         MOSUNNY   51  22  31 NE10G16   29.79R

CITY           SKY/WX    TMP DP  RH WIND       PRES   REMARKS
JACKSON        PTSUNNY   49  27  42 SE8       29.77F
LAMBERTVILLE   PTSUNNY   45  32  61 E7        29.80S
LANSING        MOSUNNY   51  25  36 NE13      29.80R
LAPEER         MOCLDY    46  25  43 NE9       29.83S
MASON          PTSUNNY   52  25  35 NE12G18   29.78R
MONROE         PTSUNNY   45  28  53 E5        29.79F
MT. CLEMENS    PTSUNNY   48  29  49 E10       29.79S
PONTIAC        MOSUNNY   49  16  26 NE9       29.80S
PORT HOPE        N/A     41  28  60 N5        29.87S
PORT HURON     MOSUNNY   43  25  49 NE13      29.84S
TRI CITIES     MOSUNNY   45  27  49 NE17      29.87S
MIDLAND        CLOUDY    45  22  40 NE10G18   29.88R
TROY           MOSUNNY   51  27  40 E13       29.82S
SAGINAW HB     MOSUNNY   45  28  53 N17       29.85S
$$
MIZ043>046-050>051-056>058-064>065-071>073-077>080-260000-
SOUTHWEST LOWER MICHIGAN

CITY           SKY/WX    TMP DP  RH WIND       PRES   REMARKS
BATTLE CREEK   PTSUNNY   51  33  50 E8        29.77F
BENTON HARBOR  CLOUDY    49  39  68 E9        29.76R
BIG RAPIDS     CLOUDY    51  21  29 SE13      29.82R
COLDWATER      CLOUDY    46  27  46 E8        29.76F
FREMONT        FAIR      55  17  23 E12       29.80R
HOLLAND        PTSUNNY   56  31  38 E9        29.78S
GRAND RAPIDS   PTSUNNY   53  29  39 NE14      29.79R
IONIA          FAIR      51  28  40 NE20G25   29.80R
KALAMAZOO      CLOUDY    51  36  56 E8        29.77F
LUDINGTON      MOSUNNY   51  26  38 N10G17    29.82R
MARSHALL       PTSUNNY   50  30  46 E6        29.77S
MOUNT PLEASANT CLOUDY    48  20  33 NE13      29.86R
MUSKEGON       PTSUNNY   55  26  32 E10       29.80R
SOUTH HAVEN    CLOUDY    52  36  54 E5        29.77R
$$
MIZ016>042-260000-
NORTHERN LOWER MICHIGAN

CITY           SKY/WX    TMP DP  RH WIND       PRES   REMARKS
BEAVER ISLAND  SUNNY     49  20  32 NE5       29.91S
BELLAIRE       SUNNY     55  21  27 NE10      29.86R
CADILLAC       CLOUDY    52  20  28 E12       29.82R
CHARLEVOIX     SUNNY     50  22  33 NE14      29.92R
FRANKFORT      MOSUNNY   51  17  25 NE12G18   29.86R
GAYLORD        SUNNY     49  20  31 E8G20     29.86R
GRAYLING       SUNNY     50  17  26 NE8       29.86R
HARBOR SPRINGS SUNNY     49  22  33 NE12      29.89S
HOUGHTON LAKE  MOSUNNY   49  20  31 SE10      29.85R
MANISTEE       MOSUNNY   52  25  35 N10       29.83R
OSCODA         SUNNY     44  23  43 NE6       29.89R
PELLSTON       SUNNY     50  21  32 E6        29.90S
ROGERS CITY    SUNNY     46  23  40 N3        29.90S
TRAVERSE CITY  MOSUNNY   49  26  41 VRB5      29.84S
$$
MIZ007>008-015-260000-
EASTERN UPPER MICHIGAN

CITY           SKY/WX    TMP DP  RH WIND       PRES   REMARKS
KINROSS        SUNNY     45  21  39 N14G22    29.91R
MACKINAC ISLAN SUNNY     48  21  34 S3        29.90S
NEWBERRY       SUNNY     45  24  43 N12G23    29.92R
S. S. MARIE    SUNNY     46  21  37 NW14      29.90S
MUNISING         N/A     37  29  72 NE13      29.97S WCI  29
$$
MIZ004>006-011>014-085-260000-
CENTRAL UPPER MICHIGAN

CITY           SKY/WX    TMP DP  RH WIND       PRES   REMARKS
MANISTIQUE     SUNNY     47  23  39 SE6       29.92S
ESCANABA       SUNNY     46  21  36 S3        29.92R
MENOMINEE      SUNNY     46  19  34 E9        29.91S
SAWYER-GWINN   SUNNY     39  19  45 NE14      29.95S WCI  31
$$
MIZ001>003-009>011-084-260000-
WESTERN UPPER MICHIGAN

CITY           SKY/WX    TMP DP  RH WIND       PRES   REMARKS
IRON MOUNTAIN  SUNNY     52  19  27 NE9       29.90R
HOUGHTON       SUNNY     42  20  41 E7        29.98S
COPPER HARBOR    N/A     38  30  73 CALM      30.01S
IRONWOOD       SUNNY     46  25  42 N12       29.93R
$$

ABBREVIATIONS USED IN REMARKS
   TC - TEMPERATURE IN CELSIUS
  WCI - WIND CHILL INDEX
   HX - HEAT INDEX
  VSB - VISIBILITY




USA.gov is the U.S. government's official web portal to all federal, state and local government web resources and services.